Year,Month,Day,Hour,Minute,Value (Times are PST for temperature in C)
2008,08,03,00,00,11.80
2008,08,03,00,01,11.80
2008,08,03,00,02,11.80
2008,08,03,00,03,11.80
2008,08,03,00,04,11.80
2008,08,03,00,05,11.80
2008,08,03,00,06,11.80
2008,08,03,00,07,11.80
2008,08,03,00,08,11.80
2008,08,03,00,09,11.70
2008,08,03,00,10,11.70
2008,08,03,00,11,11.70
2008,08,03,00,12,11.70
2008,08,03,00,13,11.60
2008,08,03,00,14,11.60
2008,08,03,00,15,11.60
2008,08,03,00,16,11.60
2008,08,03,00,17,11.60
2008,08,03,00,18,11.60
2008,08,03,00,19,11.60
2008,08,03,00,20,11.60
2008,08,03,00,21,11.60
2008,08,03,00,22,11.50
2008,08,03,00,23,11.40
2008,08,03,00,24,11.40
2008,08,03,00,25,11.40
2008,08,03,00,26,11.40
2008,08,03,00,27,11.40
2008,08,03,00,28,11.40
2008,08,03,00,29,11.40
2008,08,03,00,30,11.40
2008,08,03,00,31,11.40
2008,08,03,00,32,11.40
2008,08,03,00,33,11.40
2008,08,03,00,34,11.40
2008,08,03,00,35,11.40
2008,08,03,00,36,11.30
2008,08,03,00,37,11.30
2008,08,03,00,38,11.30
2008,08,03,00,39,11.30
2008,08,03,00,40,11.30
2008,08,03,00,41,11.30
2008,08,03,00,42,11.30
2008,08,03,00,43,11.20
2008,08,03,00,44,11.20
2008,08,03,00,45,11.20
2008,08,03,00,46,11.20
2008,08,03,00,47,11.20
2008,08,03,00,48,11.10
2008,08,03,00,49,11.10
2008,08,03,00,50,11.10
2008,08,03,00,51,11.10
2008,08,03,00,52,11.10
2008,08,03,00,53,11.10
2008,08,03,00,54,11.10
2008,08,03,00,55,11.10
2008,08,03,00,56,11.10
2008,08,03,00,57,11.10
2008,08,03,00,58,11.10
2008,08,03,00,59,11.10
2008,08,03,01,00,11.10
2008,08,03,01,01,11.10
2008,08,03,01,02,11.10
2008,08,03,01,03,11.10
2008,08,03,01,04,10.90
2008,08,03,01,05,10.90
2008,08,03,01,06,10.90
2008,08,03,01,07,10.90
2008,08,03,01,08,10.90
2008,08,03,01,09,10.90
2008,08,03,01,10,10.90
2008,08,03,01,11,10.90
2008,08,03,01,12,10.90
2008,08,03,01,13,10.90
2008,08,03,01,14,10.90
2008,08,03,01,15,10.90
2008,08,03,01,16,10.90
2008,08,03,01,17,10.90
2008,08,03,01,18,10.90
2008,08,03,01,19,10.90
2008,08,03,01,20,10.90
2008,08,03,01,21,10.90
2008,08,03,01,22,10.90
2008,08,03,01,23,10.80
2008,08,03,01,24,10.80
2008,08,03,01,25,10.80
2008,08,03,01,26,10.80
2008,08,03,01,27,10.70
2008,08,03,01,28,10.70
2008,08,03,01,29,10.70
2008,08,03,01,30,10.70
2008,08,03,01,31,10.70
2008,08,03,01,32,10.60
2008,08,03,01,33,10.60
2008,08,03,01,34,10.70
2008,08,03,01,35,10.70
2008,08,03,01,36,10.70
2008,08,03,01,37,10.70
2008,08,03,01,38,10.70
2008,08,03,01,39,10.70
2008,08,03,01,40,10.70
2008,08,03,01,41,10.60
2008,08,03,01,42,10.60
2008,08,03,01,43,10.60
2008,08,03,01,44,10.60
2008,08,03,01,45,10.60
2008,08,03,01,46,10.60
2008,08,03,01,47,10.60
2008,08,03,01,48,10.60
2008,08,03,01,49,10.60
2008,08,03,01,50,10.60
2008,08,03,01,51,10.60
2008,08,03,01,52,10.60
2008,08,03,01,53,10.60
2008,08,03,01,54,10.60
2008,08,03,01,55,10.60
2008,08,03,01,56,10.60
2008,08,03,01,57,10.50
2008,08,03,01,58,10.40
2008,08,03,01,59,10.40
2008,08,03,02,00,10.40
2008,08,03,02,01,10.40
2008,08,03,02,02,10.40
2008,08,03,02,03,10.40
2008,08,03,02,04,10.40
2008,08,03,02,05,10.40
2008,08,03,02,06,10.40
2008,08,03,02,07,10.40
2008,08,03,02,08,10.40
2008,08,03,02,09,10.30
2008,08,03,02,10,10.30
2008,08,03,02,11,10.30
2008,08,03,02,12,10.30
2008,08,03,02,13,10.30
2008,08,03,02,14,10.20
2008,08,03,02,15,10.20
2008,08,03,02,16,10.20
2008,08,03,02,17,10.20
2008,08,03,02,18,10.20
2008,08,03,02,19,10.30
2008,08,03,02,20,10.30
2008,08,03,02,21,10.30
2008,08,03,02,22,10.20
2008,08,03,02,23,10.20
2008,08,03,02,24,10.20
2008,08,03,02,25,10.20
2008,08,03,02,26,10.20
2008,08,03,02,27,10.20
2008,08,03,02,28,10.20
2008,08,03,02,29,10.20
2008,08,03,02,30,10.20
2008,08,03,02,31,10.20
2008,08,03,02,32,10.20
2008,08,03,02,33,10.20
2008,08,03,02,34,10.20
2008,08,03,02,35,10.10
2008,08,03,02,36,10.10
2008,08,03,02,37,10.10
2008,08,03,02,38,10.10
2008,08,03,02,39,10.10
2008,08,03,02,40,10.10
2008,08,03,02,41,10.10
2008,08,03,02,42,10.10
2008,08,03,02,43,10.10
2008,08,03,02,44,10.10
2008,08,03,02,45,10.10
2008,08,03,02,46,10.10
2008,08,03,02,47,10.00
2008,08,03,02,48,9.90
2008,08,03,02,49,9.90
2008,08,03,02,50,9.90
2008,08,03,02,51,9.90
2008,08,03,02,52,9.90
2008,08,03,02,53,9.90
2008,08,03,02,54,9.90
2008,08,03,02,55,9.90
2008,08,03,02,56,9.90
2008,08,03,02,57,9.90
2008,08,03,02,58,9.90
2008,08,03,02,59,9.90
2008,08,03,03,00,9.90
2008,08,03,03,01,9.90
2008,08,03,03,02,9.90
2008,08,03,03,03,9.90
2008,08,03,03,04,9.90
2008,08,03,03,05,9.90
2008,08,03,03,06,9.90
2008,08,03,03,07,9.90
2008,08,03,03,08,9.90
2008,08,03,03,09,9.90
2008,08,03,03,10,9.90
2008,08,03,03,11,9.90
2008,08,03,03,12,9.90
2008,08,03,03,13,9.90
2008,08,03,03,14,9.90
2008,08,03,03,15,9.90
2008,08,03,03,16,9.90
2008,08,03,03,17,9.90
2008,08,03,03,18,9.90
2008,08,03,03,19,9.90
2008,08,03,03,20,9.80
2008,08,03,03,21,9.80
2008,08,03,03,22,9.80
2008,08,03,03,23,9.80
2008,08,03,03,24,9.80
2008,08,03,03,25,9.80
2008,08,03,03,26,9.80
2008,08,03,03,27,9.80
2008,08,03,03,28,9.80
2008,08,03,03,29,9.70
2008,08,03,03,30,9.70
2008,08,03,03,31,9.70
2008,08,03,03,32,9.70
2008,08,03,03,33,9.70
2008,08,03,03,34,9.70
2008,08,03,03,35,9.70
2008,08,03,03,36,9.70
2008,08,03,03,37,9.70
2008,08,03,03,38,9.70
2008,08,03,03,39,9.70
2008,08,03,03,40,9.70
2008,08,03,03,41,9.70
2008,08,03,03,42,9.70
2008,08,03,03,43,9.70
2008,08,03,03,44,9.70
2008,08,03,03,45,9.70
2008,08,03,03,46,9.70
2008,08,03,03,47,9.70
2008,08,03,03,48,9.70
2008,08,03,03,49,9.70
2008,08,03,03,50,9.70
2008,08,03,03,51,9.70
2008,08,03,03,52,9.70
2008,08,03,03,53,9.70
2008,08,03,03,54,9.70
2008,08,03,03,55,9.70
2008,08,03,03,56,9.70
2008,08,03,03,57,9.70
2008,08,03,03,58,9.70
2008,08,03,03,59,9.70
2008,08,03,04,00,9.70
2008,08,03,04,01,9.70
2008,08,03,04,02,9.70
2008,08,03,04,03,9.70
2008,08,03,04,04,9.70
2008,08,03,04,05,9.70
2008,08,03,04,06,9.70
2008,08,03,04,07,9.70
2008,08,03,04,08,9.70
2008,08,03,04,09,9.60
2008,08,03,04,10,9.60
2008,08,03,04,11,9.60
2008,08,03,04,12,9.60
2008,08,03,04,13,9.60
2008,08,03,04,14,9.60
2008,08,03,04,15,9.60
2008,08,03,04,16,9.60
2008,08,03,04,17,9.60
2008,08,03,04,18,9.60
2008,08,03,04,19,9.60
2008,08,03,04,20,9.60
2008,08,03,04,21,9.60
2008,08,03,04,22,9.60
2008,08,03,04,23,9.60
2008,08,03,04,24,9.60
2008,08,03,04,25,9.60
2008,08,03,04,26,9.60
2008,08,03,04,27,9.50
2008,08,03,04,28,9.50
2008,08,03,04,29,9.50
2008,08,03,04,30,9.50
2008,08,03,04,31,9.50
2008,08,03,04,32,9.50
2008,08,03,04,33,9.50
2008,08,03,04,34,9.50
2008,08,03,04,35,9.50
2008,08,03,04,36,9.50
2008,08,03,04,37,9.50
2008,08,03,04,38,9.50
2008,08,03,04,39,9.40
2008,08,03,04,40,9.40
2008,08,03,04,41,9.40
2008,08,03,04,42,9.40
2008,08,03,04,43,9.40
2008,08,03,04,44,9.40
2008,08,03,04,45,9.40
2008,08,03,04,46,9.40
2008,08,03,04,47,9.40
2008,08,03,04,48,9.40
2008,08,03,04,49,9.40
2008,08,03,04,50,9.40
2008,08,03,04,51,9.40
2008,08,03,04,52,9.40
2008,08,03,04,53,9.40
2008,08,03,04,54,9.40
2008,08,03,04,55,9.40
2008,08,03,04,56,9.40
2008,08,03,04,57,9.40
2008,08,03,04,58,9.40
2008,08,03,04,59,9.40
2008,08,03,05,00,9.30
2008,08,03,05,01,9.30
2008,08,03,05,02,9.30
2008,08,03,05,03,9.30
2008,08,03,05,04,9.30
2008,08,03,05,05,9.30
2008,08,03,05,06,9.30
2008,08,03,05,07,9.30
2008,08,03,05,08,9.30
2008,08,03,05,09,9.30
2008,08,03,05,10,9.30
2008,08,03,05,11,9.30
2008,08,03,05,12,9.20
2008,08,03,05,13,9.20
2008,08,03,05,14,9.20
2008,08,03,05,15,9.20
2008,08,03,05,16,9.20
2008,08,03,05,17,9.20
2008,08,03,05,18,9.20
2008,08,03,05,19,9.20
2008,08,03,05,20,9.20
2008,08,03,05,21,9.20
2008,08,03,05,22,9.20
2008,08,03,05,23,9.20
2008,08,03,05,24,9.20
2008,08,03,05,25,9.20
2008,08,03,05,26,9.20
2008,08,03,05,27,9.20
2008,08,03,05,28,9.20
2008,08,03,05,29,9.20
2008,08,03,05,30,9.20
2008,08,03,05,31,9.20
2008,08,03,05,32,9.20
2008,08,03,05,33,9.20
2008,08,03,05,34,9.20
2008,08,03,05,35,9.20
2008,08,03,05,36,9.20
2008,08,03,05,37,9.20
2008,08,03,05,38,9.20
2008,08,03,05,39,9.20
2008,08,03,05,40,9.20
2008,08,03,05,41,9.20
2008,08,03,05,42,9.20
2008,08,03,05,43,9.20
2008,08,03,05,44,9.20
2008,08,03,05,45,9.20
2008,08,03,05,46,9.20
2008,08,03,05,47,9.20
2008,08,03,05,48,9.20
2008,08,03,05,49,9.20
2008,08,03,05,50,9.30
2008,08,03,05,51,9.30
2008,08,03,05,52,9.30
2008,08,03,05,53,9.30
2008,08,03,05,54,9.30
2008,08,03,05,55,9.30
2008,08,03,05,56,9.30
2008,08,03,05,57,9.30
2008,08,03,05,58,9.30
2008,08,03,05,59,9.30
2008,08,03,06,00,9.30
2008,08,03,06,01,9.30
2008,08,03,06,02,9.30
2008,08,03,06,03,9.30
2008,08,03,06,04,9.30
2008,08,03,06,05,9.30
2008,08,03,06,06,9.30
2008,08,03,06,07,9.30
2008,08,03,06,08,9.30
2008,08,03,06,09,9.30
2008,08,03,06,10,9.30
2008,08,03,06,11,9.30
2008,08,03,06,12,9.20
2008,08,03,06,13,9.20
2008,08,03,06,14,9.20
2008,08,03,06,15,9.20
2008,08,03,06,16,9.20
2008,08,03,06,17,9.20
2008,08,03,06,18,9.20
2008,08,03,06,19,9.20
2008,08,03,06,20,9.20
2008,08,03,06,21,9.20
2008,08,03,06,22,9.20
2008,08,03,06,23,9.20
2008,08,03,06,24,9.20
2008,08,03,06,25,9.20
2008,08,03,06,26,9.20
2008,08,03,06,27,9.20
2008,08,03,06,28,9.30
2008,08,03,06,29,9.30
2008,08,03,06,30,9.30
2008,08,03,06,31,9.30
2008,08,03,06,32,9.30
2008,08,03,06,33,9.30
2008,08,03,06,34,9.30
2008,08,03,06,35,9.30
2008,08,03,06,36,9.40
2008,08,03,06,37,9.40
2008,08,03,06,38,9.50
2008,08,03,06,39,9.50
2008,08,03,06,40,9.50
2008,08,03,06,41,9.50
2008,08,03,06,42,9.60
2008,08,03,06,43,9.60
2008,08,03,06,44,9.60
2008,08,03,06,45,9.70
2008,08,03,06,46,9.70
2008,08,03,06,47,9.70
2008,08,03,06,48,9.70
2008,08,03,06,49,9.80
2008,08,03,06,50,9.80
2008,08,03,06,51,9.80
2008,08,03,06,52,9.90
2008,08,03,06,53,9.90
2008,08,03,06,54,9.90
2008,08,03,06,55,9.90
2008,08,03,06,56,9.90
2008,08,03,06,57,9.90
2008,08,03,06,58,9.90
2008,08,03,06,59,10.00
2008,08,03,07,00,10.10
2008,08,03,07,01,10.10
2008,08,03,07,02,10.10
2008,08,03,07,03,10.10
2008,08,03,07,04,10.20
2008,08,03,07,05,10.30
2008,08,03,07,06,10.40
2008,08,03,07,07,10.40
2008,08,03,07,08,10.50
2008,08,03,07,09,10.60
2008,08,03,07,10,10.60
2008,08,03,07,11,10.60
2008,08,03,07,12,10.70
2008,08,03,07,13,10.80
2008,08,03,07,14,10.90
2008,08,03,07,15,10.90
2008,08,03,07,16,11.10
2008,08,03,07,17,11.10
2008,08,03,07,18,11.30
2008,08,03,07,19,11.40
2008,08,03,07,20,11.50
2008,08,03,07,21,11.60
2008,08,03,07,22,11.70
2008,08,03,07,23,11.80
2008,08,03,07,24,11.80
2008,08,03,07,25,11.80
2008,08,03,07,26,11.90
2008,08,03,07,27,11.90
2008,08,03,07,28,12.00
2008,08,03,07,29,12.00
2008,08,03,07,30,12.00
2008,08,03,07,31,12.10
2008,08,03,07,32,12.10
2008,08,03,07,33,12.20
2008,08,03,07,34,12.30
2008,08,03,07,35,12.30
2008,08,03,07,36,12.40
2008,08,03,07,37,12.40
2008,08,03,07,38,12.60
2008,08,03,07,39,12.60
2008,08,03,07,40,12.70
2008,08,03,07,41,12.70
2008,08,03,07,42,12.80
2008,08,03,07,43,12.80
2008,08,03,07,44,12.80
2008,08,03,07,45,12.90
2008,08,03,07,46,13.10
2008,08,03,07,47,13.10
2008,08,03,07,48,13.20
2008,08,03,07,49,13.20
2008,08,03,07,50,13.30
2008,08,03,07,51,13.30
2008,08,03,07,52,13.30
2008,08,03,07,53,13.30
2008,08,03,07,54,13.40
2008,08,03,07,55,13.50
2008,08,03,07,56,13.50
2008,08,03,07,57,13.70
2008,08,03,07,58,13.70
2008,08,03,07,59,13.80
2008,08,03,08,00,13.90
2008,08,03,08,01,14.00
2008,08,03,08,02,14.00
2008,08,03,08,03,14.10
2008,08,03,08,04,14.20
2008,08,03,08,05,14.20
2008,08,03,08,06,14.20
2008,08,03,08,07,14.20
2008,08,03,08,08,14.20
2008,08,03,08,09,14.20
2008,08,03,08,10,14.20
2008,08,03,08,11,14.30
2008,08,03,08,12,14.30
2008,08,03,08,13,14.40
2008,08,03,08,14,14.50
2008,08,03,08,15,14.60
2008,08,03,08,16,14.70
2008,08,03,08,17,14.80
2008,08,03,08,18,14.80
2008,08,03,08,19,14.80
2008,08,03,08,20,14.90
2008,08,03,08,21,14.90
2008,08,03,08,22,15.00
2008,08,03,08,23,15.00
2008,08,03,08,24,15.10
2008,08,03,08,25,15.30
2008,08,03,08,26,15.30
2008,08,03,08,27,15.30
2008,08,03,08,28,15.40
2008,08,03,08,29,15.40
2008,08,03,08,30,15.40
2008,08,03,08,31,15.40
2008,08,03,08,32,15.40
2008,08,03,08,33,15.40
2008,08,03,08,34,15.40
2008,08,03,08,35,15.50
2008,08,03,08,36,15.60
2008,08,03,08,37,15.70
2008,08,03,08,38,15.80
2008,08,03,08,39,15.80
2008,08,03,08,40,15.90
2008,08,03,08,41,15.90
2008,08,03,08,42,16.00
2008,08,03,08,43,16.10
2008,08,03,08,44,16.10
2008,08,03,08,45,16.20
2008,08,03,08,46,16.20
2008,08,03,08,47,16.30
2008,08,03,08,48,16.30
2008,08,03,08,49,16.40
2008,08,03,08,50,16.50
2008,08,03,08,51,16.50
2008,08,03,08,52,16.40
2008,08,03,08,53,16.40
2008,08,03,08,54,16.50
2008,08,03,08,55,16.60
2008,08,03,08,56,16.60
2008,08,03,08,57,16.70
2008,08,03,08,58,16.80
2008,08,03,08,59,16.80
2008,08,03,09,00,16.90
2008,08,03,09,01,16.90
2008,08,03,09,02,16.90
2008,08,03,09,03,17.00
2008,08,03,09,04,17.10
2008,08,03,09,05,17.20
2008,08,03,09,06,17.30
2008,08,03,09,07,17.40
2008,08,03,09,08,17.40
2008,08,03,09,09,17.50
2008,08,03,09,10,17.40
2008,08,03,09,11,17.30
2008,08,03,09,12,17.30
2008,08,03,09,13,17.30
2008,08,03,09,14,17.30
2008,08,03,09,15,17.30
2008,08,03,09,16,17.20
2008,08,03,09,17,17.10
2008,08,03,09,18,17.00
2008,08,03,09,19,17.00
2008,08,03,09,20,17.00
2008,08,03,09,21,17.10
2008,08,03,09,22,17.00
2008,08,03,09,23,17.00
2008,08,03,09,24,16.90
2008,08,03,09,25,16.90
2008,08,03,09,26,16.90
2008,08,03,09,27,17.00
2008,08,03,09,28,16.90
2008,08,03,09,29,17.00
2008,08,03,09,30,17.00
2008,08,03,09,31,17.20
2008,08,03,09,32,17.30
2008,08,03,09,33,17.30
2008,08,03,09,34,17.40
2008,08,03,09,35,17.50
2008,08,03,09,36,17.70
2008,08,03,09,37,17.90
2008,08,03,09,38,17.90
2008,08,03,09,39,17.80
2008,08,03,09,40,17.70
2008,08,03,09,41,17.60
2008,08,03,09,42,17.60
2008,08,03,09,43,17.50
2008,08,03,09,44,17.40
2008,08,03,09,45,17.30
2008,08,03,09,46,17.20
2008,08,03,09,47,17.20
2008,08,03,09,48,17.30
2008,08,03,09,49,17.30
2008,08,03,09,50,17.30
2008,08,03,09,51,17.30
2008,08,03,09,52,17.30
2008,08,03,09,53,17.30
2008,08,03,09,54,17.40
2008,08,03,09,55,17.50
2008,08,03,09,56,17.60
2008,08,03,09,57,17.70
2008,08,03,09,58,17.80
2008,08,03,09,59,17.90
2008,08,03,10,00,17.90
2008,08,03,10,01,17.90
2008,08,03,10,02,17.90
2008,08,03,10,03,17.90
2008,08,03,10,04,17.90
2008,08,03,10,05,17.90
2008,08,03,10,06,17.90
2008,08,03,10,07,17.90
2008,08,03,10,08,17.90
2008,08,03,10,09,17.80
2008,08,03,10,10,17.70
2008,08,03,10,11,17.50
2008,08,03,10,12,17.40
2008,08,03,10,13,17.40
2008,08,03,10,14,17.40
2008,08,03,10,15,17.50
2008,08,03,10,16,17.70
2008,08,03,10,17,17.70
2008,08,03,10,18,17.70
2008,08,03,10,19,17.70
2008,08,03,10,20,17.70
2008,08,03,10,21,17.70
2008,08,03,10,22,17.60
2008,08,03,10,23,17.50
2008,08,03,10,24,17.50
2008,08,03,10,25,17.50
2008,08,03,10,26,17.60
2008,08,03,10,27,17.60
2008,08,03,10,28,17.60
2008,08,03,10,29,17.70
2008,08,03,10,30,17.70
2008,08,03,10,31,17.70
2008,08,03,10,32,17.80
2008,08,03,10,33,17.90
2008,08,03,10,34,17.80
2008,08,03,10,35,17.70
2008,08,03,10,36,17.60
2008,08,03,10,37,17.60
2008,08,03,10,38,17.60
2008,08,03,10,39,17.60
2008,08,03,10,40,17.70
2008,08,03,10,41,17.70
2008,08,03,10,42,17.90
2008,08,03,10,43,17.90
2008,08,03,10,44,18.00
2008,08,03,10,45,18.10
2008,08,03,10,46,18.10
2008,08,03,10,47,18.00
2008,08,03,10,48,17.90
2008,08,03,10,49,17.90
2008,08,03,10,50,18.10
2008,08,03,10,51,18.10
2008,08,03,10,52,18.10
2008,08,03,10,53,18.10
2008,08,03,10,54,18.20
2008,08,03,10,55,18.20
2008,08,03,10,56,18.20
2008,08,03,10,57,18.40
2008,08,03,10,58,18.50
2008,08,03,10,59,18.60
2008,08,03,11,00,18.60
2008,08,03,11,01,18.50
2008,08,03,11,02,18.20
2008,08,03,11,03,18.10
2008,08,03,11,04,18.00
2008,08,03,11,05,17.90
2008,08,03,11,06,17.90
2008,08,03,11,07,17.90
2008,08,03,11,08,17.90
2008,08,03,11,09,18.00
2008,08,03,11,10,18.10
2008,08,03,11,11,18.10
2008,08,03,11,12,18.10
2008,08,03,11,13,18.10
2008,08,03,11,14,18.20
2008,08,03,11,15,18.30
2008,08,03,11,16,18.50
2008,08,03,11,17,18.60
2008,08,03,11,18,18.60
2008,08,03,11,19,18.70
2008,08,03,11,20,18.70
2008,08,03,11,21,18.70
2008,08,03,11,22,18.60
2008,08,03,11,23,18.50
2008,08,03,11,24,18.40
2008,08,03,11,25,18.40
2008,08,03,11,26,18.40
2008,08,03,11,27,18.40
2008,08,03,11,28,18.50
2008,08,03,11,29,18.50
2008,08,03,11,30,18.40
2008,08,03,11,31,18.50
2008,08,03,11,32,18.50
2008,08,03,11,33,18.70
2008,08,03,11,34,18.70
2008,08,03,11,35,18.70
2008,08,03,11,36,18.70
2008,08,03,11,37,18.60
2008,08,03,11,38,18.60
2008,08,03,11,39,18.50
2008,08,03,11,40,18.60
2008,08,03,11,41,18.70
2008,08,03,11,42,18.60
2008,08,03,11,43,18.50
2008,08,03,11,44,18.60
2008,08,03,11,45,18.60
2008,08,03,11,46,18.70
2008,08,03,11,47,18.60
2008,08,03,11,48,18.50
2008,08,03,11,49,18.50
2008,08,03,11,50,18.50
2008,08,03,11,51,18.50
2008,08,03,11,52,18.60
2008,08,03,11,53,18.70
2008,08,03,11,54,18.80
2008,08,03,11,55,18.90
2008,08,03,11,56,18.90
2008,08,03,11,57,18.90
2008,08,03,11,58,18.90
2008,08,03,11,59,18.90
2008,08,03,12,00,18.90
2008,08,03,12,01,18.80
2008,08,03,12,02,18.70
2008,08,03,12,03,18.70
2008,08,03,12,04,18.80
2008,08,03,12,05,18.90
2008,08,03,12,06,18.90
2008,08,03,12,07,18.90
2008,08,03,12,08,18.90
2008,08,03,12,09,18.90
2008,08,03,12,10,18.80
2008,08,03,12,11,18.90
2008,08,03,12,12,18.90
2008,08,03,12,13,18.90
2008,08,03,12,14,18.90
2008,08,03,12,15,18.90
2008,08,03,12,16,19.00
2008,08,03,12,17,19.10
2008,08,03,12,18,19.10
2008,08,03,12,19,19.10
2008,08,03,12,20,19.10
2008,08,03,12,21,19.30
2008,08,03,12,22,19.30
2008,08,03,12,23,19.10
2008,08,03,12,24,19.10
2008,08,03,12,25,19.00
2008,08,03,12,26,18.90
2008,08,03,12,27,19.00
2008,08,03,12,28,19.10
2008,08,03,12,29,19.10
2008,08,03,12,30,19.00
2008,08,03,12,31,19.10
2008,08,03,12,32,19.10
2008,08,03,12,33,19.10
2008,08,03,12,34,19.10
2008,08,03,12,35,19.10
2008,08,03,12,36,19.10
2008,08,03,12,37,19.10
2008,08,03,12,38,19.10
2008,08,03,12,39,19.10
2008,08,03,12,40,19.10
2008,08,03,12,41,19.10
2008,08,03,12,42,19.10
2008,08,03,12,43,19.20
2008,08,03,12,44,19.20
2008,08,03,12,45,19.30
2008,08,03,12,46,19.50
2008,08,03,12,47,19.60
2008,08,03,12,48,19.80
2008,08,03,12,49,19.80
2008,08,03,12,50,19.60
2008,08,03,12,51,19.50
2008,08,03,12,52,19.50
2008,08,03,12,53,19.50
2008,08,03,12,54,19.60
2008,08,03,12,55,19.60
2008,08,03,12,56,19.50
2008,08,03,12,57,19.40
2008,08,03,12,58,19.40
2008,08,03,12,59,19.30
2008,08,03,13,00,19.20
2008,08,03,13,01,19.20
2008,08,03,13,02,19.30
2008,08,03,13,03,19.20
2008,08,03,13,04,19.20
2008,08,03,13,05,19.20
2008,08,03,13,06,19.20
2008,08,03,13,07,19.30
2008,08,03,13,08,19.40
2008,08,03,13,09,19.40
2008,08,03,13,10,19.40
2008,08,03,13,11,19.40
2008,08,03,13,12,19.50
2008,08,03,13,13,19.70
2008,08,03,13,14,19.80
2008,08,03,13,15,19.70
2008,08,03,13,16,19.50
2008,08,03,13,17,19.40
2008,08,03,13,18,19.40
2008,08,03,13,19,19.40
2008,08,03,13,20,19.60
2008,08,03,13,21,19.70
2008,08,03,13,22,19.80
2008,08,03,13,23,19.70
2008,08,03,13,24,19.60
2008,08,03,13,25,19.50
2008,08,03,13,26,19.50
2008,08,03,13,27,19.40
2008,08,03,13,28,19.40
2008,08,03,13,29,19.40
2008,08,03,13,30,19.50
2008,08,03,13,31,19.60
2008,08,03,13,32,19.70
2008,08,03,13,33,19.70
2008,08,03,13,34,19.80
2008,08,03,13,35,19.90
2008,08,03,13,36,19.90
2008,08,03,13,37,19.90
2008,08,03,13,38,20.00
2008,08,03,13,39,20.10
2008,08,03,13,40,19.90
2008,08,03,13,41,19.90
2008,08,03,13,42,19.70
2008,08,03,13,43,19.70
2008,08,03,13,44,19.80
2008,08,03,13,45,19.90
2008,08,03,13,46,20.00
2008,08,03,13,47,20.10
2008,08,03,13,48,20.20
2008,08,03,13,49,20.10
2008,08,03,13,50,20.00
2008,08,03,13,51,19.90
2008,08,03,13,52,19.70
2008,08,03,13,53,19.60
2008,08,03,13,54,19.50
2008,08,03,13,55,19.50
2008,08,03,13,56,19.50
2008,08,03,13,57,19.60
2008,08,03,13,58,19.70
2008,08,03,13,59,19.80
2008,08,03,14,00,19.70
2008,08,03,14,01,19.80
2008,08,03,14,02,19.80
2008,08,03,14,03,19.90
2008,08,03,14,04,20.00
2008,08,03,14,05,20.00
2008,08,03,14,06,19.90
2008,08,03,14,07,19.90
2008,08,03,14,08,19.90
2008,08,03,14,09,19.90
2008,08,03,14,10,19.90
2008,08,03,14,11,20.10
2008,08,03,14,12,20.00
2008,08,03,14,13,19.90
2008,08,03,14,14,19.90
2008,08,03,14,15,19.90
2008,08,03,14,16,19.90
2008,08,03,14,17,19.90
2008,08,03,14,18,19.80
2008,08,03,14,19,19.80
2008,08,03,14,20,19.80
2008,08,03,14,21,19.80
2008,08,03,14,22,19.70
2008,08,03,14,23,19.70
2008,08,03,14,24,19.70
2008,08,03,14,25,19.80
2008,08,03,14,26,19.80
2008,08,03,14,27,20.00
2008,08,03,14,28,20.10
2008,08,03,14,29,20.20
2008,08,03,14,30,20.20
2008,08,03,14,31,20.10
2008,08,03,14,32,20.10
2008,08,03,14,33,20.10
2008,08,03,14,34,20.10
2008,08,03,14,35,20.00
2008,08,03,14,36,19.90
2008,08,03,14,37,20.00
2008,08,03,14,38,20.10
2008,08,03,14,39,20.20
2008,08,03,14,40,20.30
2008,08,03,14,41,20.20
2008,08,03,14,42,20.00
2008,08,03,14,43,19.80
2008,08,03,14,44,19.80
2008,08,03,14,45,19.80
2008,08,03,14,46,19.90
2008,08,03,14,47,19.90
2008,08,03,14,48,20.10
2008,08,03,14,49,20.20
2008,08,03,14,50,20.30
2008,08,03,14,51,20.50
2008,08,03,14,52,20.50
2008,08,03,14,53,20.40
2008,08,03,14,54,20.30
2008,08,03,14,55,20.30
2008,08,03,14,56,20.30
2008,08,03,14,57,20.30
2008,08,03,14,58,20.30
2008,08,03,14,59,20.30
2008,08,03,15,00,20.30
2008,08,03,15,01,20.20
2008,08,03,15,02,20.20
2008,08,03,15,03,20.30
2008,08,03,15,04,20.40
2008,08,03,15,05,20.30
2008,08,03,15,06,20.30
2008,08,03,15,07,20.30
2008,08,03,15,08,20.10
2008,08,03,15,09,20.00
2008,08,03,15,10,19.80
2008,08,03,15,11,19.80
2008,08,03,15,12,19.80
2008,08,03,15,13,19.80
2008,08,03,15,14,19.80
2008,08,03,15,15,19.70
2008,08,03,15,16,19.70
2008,08,03,15,17,19.70
2008,08,03,15,18,19.80
2008,08,03,15,19,20.00
2008,08,03,15,20,20.10
2008,08,03,15,21,20.20
2008,08,03,15,22,20.20
2008,08,03,15,23,20.40
2008,08,03,15,24,20.60
2008,08,03,15,25,20.80
2008,08,03,15,26,20.90
2008,08,03,15,27,21.00
2008,08,03,15,28,21.00
2008,08,03,15,29,21.00
2008,08,03,15,30,20.90
2008,08,03,15,31,20.90
2008,08,03,15,32,20.80
2008,08,03,15,33,20.60
2008,08,03,15,34,20.50
2008,08,03,15,35,20.50
2008,08,03,15,36,20.60
2008,08,03,15,37,20.60
2008,08,03,15,38,20.40
2008,08,03,15,39,20.30
2008,08,03,15,40,20.20
2008,08,03,15,41,20.30
2008,08,03,15,42,20.30
2008,08,03,15,43,20.20
2008,08,03,15,44,20.20
2008,08,03,15,45,20.20
2008,08,03,15,46,20.30
2008,08,03,15,47,20.30
2008,08,03,15,48,20.30
2008,08,03,15,49,20.30
2008,08,03,15,50,20.30
2008,08,03,15,51,20.30
2008,08,03,15,52,20.40
2008,08,03,15,53,20.30
2008,08,03,15,54,20.30
2008,08,03,15,55,20.30
2008,08,03,15,56,20.20
2008,08,03,15,57,20.20
2008,08,03,15,58,20.20
2008,08,03,15,59,20.10
2008,08,03,16,00,20.10
2008,08,03,16,01,20.10
2008,08,03,16,02,20.10
2008,08,03,16,03,20.20
2008,08,03,16,04,20.20
2008,08,03,16,05,20.30
2008,08,03,16,06,20.30
2008,08,03,16,07,20.30
2008,08,03,16,08,20.30
2008,08,03,16,09,20.40
2008,08,03,16,10,20.50
2008,08,03,16,11,20.50
2008,08,03,16,12,20.50
2008,08,03,16,13,20.50
2008,08,03,16,14,20.50
2008,08,03,16,15,20.50
2008,08,03,16,16,20.50
2008,08,03,16,17,20.50
2008,08,03,16,18,20.50
2008,08,03,16,19,20.50
2008,08,03,16,20,20.50
2008,08,03,16,21,20.50
2008,08,03,16,22,20.40
2008,08,03,16,23,20.40
2008,08,03,16,24,20.40
2008,08,03,16,25,20.40
2008,08,03,16,26,20.40
2008,08,03,16,27,20.40
2008,08,03,16,28,20.30
2008,08,03,16,29,20.20
2008,08,03,16,30,20.20
2008,08,03,16,31,20.20
2008,08,03,16,32,20.20
2008,08,03,16,33,20.30
2008,08,03,16,34,20.30
2008,08,03,16,35,20.40
2008,08,03,16,36,20.50
2008,08,03,16,37,20.50
2008,08,03,16,38,20.50
2008,08,03,16,39,20.50
2008,08,03,16,40,20.60
2008,08,03,16,41,20.60
2008,08,03,16,42,20.70
2008,08,03,16,43,20.70
2008,08,03,16,44,20.70
2008,08,03,16,45,20.70
2008,08,03,16,46,20.70
2008,08,03,16,47,20.90
2008,08,03,16,48,21.00
2008,08,03,16,49,21.00
2008,08,03,16,50,20.90
2008,08,03,16,51,20.90
2008,08,03,16,52,21.00
2008,08,03,16,53,21.00
2008,08,03,16,54,21.00
2008,08,03,16,55,21.10
2008,08,03,16,56,21.10
2008,08,03,16,57,21.00
2008,08,03,16,58,21.00
2008,08,03,16,59,21.00
2008,08,03,17,00,21.00
2008,08,03,17,01,21.10
2008,08,03,17,02,21.10
2008,08,03,17,03,21.20
2008,08,03,17,04,21.20
2008,08,03,17,05,21.20
2008,08,03,17,06,21.20
2008,08,03,17,07,21.20
2008,08,03,17,08,21.20
2008,08,03,17,09,21.20
2008,08,03,17,10,21.30
2008,08,03,17,11,21.30
2008,08,03,17,12,21.30
2008,08,03,17,13,21.30
2008,08,03,17,14,21.30
2008,08,03,17,15,21.30
2008,08,03,17,16,21.40
2008,08,03,17,17,21.40
2008,08,03,17,18,21.60
2008,08,03,17,19,21.60
2008,08,03,17,20,21.70
2008,08,03,17,21,21.90
2008,08,03,17,22,22.00
2008,08,03,17,23,22.10
2008,08,03,17,24,22.20
2008,08,03,17,25,22.30
2008,08,03,17,26,22.40
2008,08,03,17,27,22.50
2008,08,03,17,28,22.50
2008,08,03,17,29,22.60
2008,08,03,17,30,22.50